Temperature
27 25 24 25 25 26 26 26 25 26 27 26 25 24 24 25 24 23 23 23 23 23 23 22 22 22 22 22 21 21 21 20 20 20 19 19 19 19 19 19 19 19 19 19
25 25 26 27 28 27 27 26 26 26 27 26 24 24 24 24 24 24 23 23 23 23 22 22 22 22 22 22 21 21 21 20 20 20 19 19 19 19 19 19 19 19 19 19
25 26 28 28 28 27 27 26 26 26 26 26 25 24 24 24 24 24 23 23 23 23 23 22 22 22 22 22 21 21 20 20 20 20 19 19 19 19 19 19 19 18 18 18
26 27 28 28 28 28 26 28 28 27 25 23 24 22 23 22 22 23 23 23 23 23 23 23 22 22 22 21 21 21 21 20 20 20 19 19 19 19 19 18 18 18 18 18
26 27 27 28 28 28 27 28 28 27 24 23 23 22 22 22 22 22 23 23 23 23 23 23 22 22 22 21 21 21 20 20 20 19 19 19 19 19 19 18 18 18 18 18
26 28 28 28 29 29 28 27 25 23 22 22 23 22 22 21 22 23 23 23 23 23 23 22 22 22 22 21 21 21 20 20 20 19 19 19 19 19 19 19 18 18 18 18
26 27 28 28 28 28 27 24 23 23 21 22 22 22 22 23 23 23 23 23 23 23 23 22 22 22 21 21 21 21 21 20 20 19 19 19 19 19 19 19 18 18 18 18
24 24 26 28 27 27 26 24 23 23 22 21 22 22 22 24 24 24 24 24 23 23 22 22 22 22 22 21 21 21 20 20 20 20 19 19 19 19 19 18 18 18 18 18
24 24 27 28 28 27 26 24 23 21 21 21 21 22 23 23 23 23 23 23 23 22 22 22 22 22 22 22 21 21 20 20 20 20 19 19 19 19 18 18 18 18 18 17
24 24 26 27 28 27 26 24 21 21 21 21 22 22 22 22 22 22 22 22 22 22 22 22 22 22 22 22 21 21 20 20 20 20 19 19 19 18 18 18 18 18 17 17
24 23 24 25 26 26 26 25 22 20 20 21 21 22 23 22 22 22 22 22 22 22 22 22 22 22 22 21 21 20 20 20 20 19 19 19 18 18 18 18 18 17 17 17
23 21 22 24 25 27 26 25 22 22 21 20 20 21 24 23 22 22 22 23 22 22 22 22 22 21 21 21 20 20 20 19 19 19 19 18 18 18 18 18 17 17 17 17
24 21 21 22 23 24 25 25 23 21 20 19 20 22 23 22 22 23 23 22 22 22 22 22 22 21 21 20 20 20 19 19 19 19 18 18 18 18 17 17 17 17 17 17
23 20 21 22 23 23 24 25 25 22 20 20 21 22 22 22 22 22 22 22 22 22 22 22 21 21 21 20 20 20 19 19 19 18 18 18 18 17 17 17 17 17 16 16
21 21 22 22 24 25 25 26 25 24 22 22 22 22 22 22 22 22 22 22 22 21 21 21 21 21 20 20 20 19 19 18 18 18 18 17 17 17 17 17 16 16 16 16
20 21 21 22 24 25 25 26 26 25 24 23 23 22 22 22 23 22 22 22 21 21 21 21 21 20 20 20 19 19 19 18 18 18 17 17 17 17 16 16 16 16 16 15
19 19 20 20 22 23 23 24 25 24 24 23 23 22 22 21 22 22 22 22 22 22 21 21 21 20 20 20 19 19 18 18 18 18 17 17 17 16 16 16 16 15 15 15
19 18 17 19 21 22 22 23 24 24 24 23 23 22 22 22 22 23 23 22 22 22 21 21 21 20 20 20 19 18 18 18 17 17 17 17 16 16 16 15 15 15 15 15
19 19 18 18 20 21 22 23 24 23 23 23 22 22 22 23 22 21 22 23 22 22 21 21 21 20 20 19 19 18 18 17 17 17 16 16 16 16 15 15 15 15 14 14
18 18 18 19 20 21 21 23 24 23 22 22 22 22 22 22 20 20 22 22 22 21 21 21 20 20 19 19 18 18 18 17 17 16 16 16 15 15 15 15 15 14 14 14
19 18 18 18 19 20 21 23 24 22 21 22 22 22 22 21 21 22 22 22 21 21 21 20 20 19 19 18 18 18 17 17 16 16 16 15 15 15 15 14 14 14 14 14
18 18 18 17 19 19 21 22 21 20 22 22 22 22 22 22 22 22 22 21 21 20 20 19 19 18 18 18 18 18 17 16 16 16 15 15 15 15 14 14 14 14 14 14
17 17 16 17 18 20 21 21 22 22 22 22 22 22 22 22 22 21 21 21 20 20 19 19 18 18 18 18 18 17 16 16 15 15 15 15 15 14 14 14 14 13 13 13
17 17 17 17 19 20 21 22 22 22 22 22 22 22 22 21 21 21 21 20 20 19 19 18 18 17 17 17 17 16 16 16 15 15 15 14 14 14 14 13 13 13 13 13
17 17 17 17 18 19 21 21 22 22 22 22 21 21 21 21 21 21 20 20 19 19 18 18 18 17 17 16 16 16 16 15 15 15 14 14 14 14 13 13 13 13 12 12
16 17 16 17 18 17 19 21 21 21 21 21 21 21 21 21 20 20 20 19 19 18 18 17 17 17 16 16 16 15 15 15 15 14 14 14 13 13 13 13 13 12 12 12
Wind_Speed
3 1 5 9 8 8 6 5 5 6 4 2 3 5 7 7 9 9 9 9 9 8 7 7 8 8 7 6 5 4 4 3 3 3 2 2 1 1 1 1 2 2 2 2
4 6 11 8 7 5 4 4 4 4 4 1 3 2 3 5 9 11 11 10 10 8 6 6 7 7 7 7 5 4 4 3 3 2 2 2 2 1 1 1 1 2 2 2
8 10 7 6 7 5 5 6 6 4 2 2 3 3 3 2 4 6 9 10 11 12 11 9 8 6 7 7 6 5 4 4 3 3 3 2 2 2 2 1 0 0 1 1
7 8 7 8 8 5 5 6 6 5 2 2 2 1 6 4 2 4 6 8 10 11 10 9 8 8 8 7 7 5 5 4 3 3 3 4 3 2 1 1 0 0 1 1
6 5 6 7 8 4 6 5 3 5 5 2 1 2 6 2 3 6 6 8 9 11 12 11 10 10 9 8 7 6 5 4 3 3 3 3 2 1 1 1 1 1 1 1
8 7 5 7 7 5 3 3 5 5 5 2 3 3 5 4 7 7 7 7 8 10 12 11 11 9 8 7 6 6 5 4 3 4 3 4 3 2 2 2 1 1 1 2
7 8 6 4 4 4 2 5 4 6 5 4 3 1 6 7 6 8 9 9 8 10 11 10 11 10 9 8 7 7 6 5 4 4 3 3 3 3 3 2 1 1 0 1
3 7 6 4 5 5 3 7 6 4 4 4 3 3 6 6 5 5 7 9 8 10 10 11 11 11 10 9 8 7 6 5 4 4 3 2 2 2 1 1 1 1 1 1
5 6 6 5 3 5 2 1 7 6 1 0 3 4 6 1 3 5 6 7 7 10 11 10 10 9 9 9 9 9 8 6 5 4 4 3 2 2 2 1 1 0 0 0
6 4 7 6 2 2 5 6 6 5 3 1 4 4 4 4 4 5 6 7 7 9 10 10 9 9 8 8 8 8 8 7 5 5 4 4 3 2 2 1 1 0 0 1
4 4 6 4 2 4 0 3 5 4 5 6 3 7 6 9 8 9 9 9 10 10 11 10 9 8 7 6 6 6 7 6 5 5 4 3 3 2 1 1 1 1 0 0
4 4 3 6 6 3 5 4 6 4 3 4 4 7 5 8 8 8 8 9 9 8 8 9 8 7 6 6 5 5 5 5 4 4 3 2 2 1 1 0 0 0 1 1
3 5 0 7 7 6 2 1 3 6 4 4 4 6 3 2 4 6 8 9 9 8 7 7 7 7 6 6 5 5 5 5 4 4 4 3 3 2 2 1 0 1 1 1
4 4 6 7 6 4 4 3 1 4 3 4 6 5 2 4 5 5 7 8 8 8 8 8 7 6 6 6 5 5 5 5 5 5 4 4 3 2 2 1 1 1 1 1
5 3 2 4 3 3 3 3 2 2 5 6 7 6 7 8 9 10 9 9 8 8 9 8 7 6 6 5 5 5 5 4 5 6 5 4 3 3 2 2 2 2 2 1
4 3 2 3 4 4 4 4 3 1 2 3 4 4 6 5 7 9 10 12 11 10 9 8 8 8 7 6 5 5 5 4 5 6 5 3 3 3 2 2 2 3 3 2
1 3 2 3 5 5 5 4 1 1 1 4 5 7 4 5 9 11 12 12 11 11 10 9 8 7 7 7 7 6 5 5 5 5 4 3 3 3 2 2 3 2 2 2
4 2 2 1 3 2 6 3 1 2 1 1 4 4 8 9 8 8 10 11 11 10 10 9 8 7 7 7 7 6 6 6 5 4 4 3 3 3 2 2 2 2 1 2
6 5 3 2 1 5 6 4 1 1 3 3 3 5 6 7 7 2 5 9 10 10 10 8 8 8 8 8 8 8 6 6 5 4 3 3 3 3 2 2 1 1 1 1
4 5 4 3 2 4 6 6 3 3 2 4 2 5 7 9 5 4 5 7 9 9 8 8 7 8 8 7 8 9 7 5 4 3 3 3 3 3 2 1 0 0 1 1
4 2 2 3 3 5 6 6 4 2 5 4 2 4 5 5 6 7 8 7 8 9 9 9 9 7 7 7 8 8 6 4 3 3 3 3 2 2 2 1 1 1 2 2
2 2 2 3 3 6 4 2 2 5 4 2 2 3 4 4 6 8 9 9 9 9 9 9 8 7 6 7 8 7 5 4 4 4 3 2 1 1 2 2 2 2 2 2
2 5 5 5 6 5 3 3 3 3 2 2 3 3 6 7 8 9 8 9 9 9 8 7 8 7 5 5 7 7 4 4 5 4 3 2 1 1 2 3 2 2 2 2
4 1 1 1 4 4 2 1 1 1 1 1 3 6 7 7 8 9 10 9 9 8 8 8 9 8 6 5 6 6 5 5 5 4 2 2 2 1 2 2 2 2 1 1
4 2 1 2 5 5 5 3 1 2 4 5 4 5 7 8 7 9 9 9 9 8 7 8 9 8 7 5 5 5 5 6 5 4 2 1 1 1 1 1 1 1 1 2
3 3 3 4 5 3 4 3 1 4 4 5 5 4 4 7 8 9 9 9 9 9 8 9 8 8 7 6 5 4 4 6 6 3 2 1 1 1 1 1 1 2 0 0
Wind_Direction
289 90 244 242 220 207 218 232 244 256 248 176 185 186 196 177 165 173 174 170 169 176 175 160 155 146 141 135 125 124 119 118 107 102 98 89 70 65 81 93 101 109 107 105
340 267 246 243 242 228 224 227 240 261 267 186 154 213 218 188 179 178 179 179 176 173 169 165 165 161 152 145 140 134 138 137 130 143 147 140 144 151 139 119 79 97 102 99
230 250 260 259 257 242 251 215 221 222 303 26 98 340 296 244 196 184 182 177 176 176 173 173 172 163 149 146 148 143 147 141 142 132 115 105 69 43 39 39 26 45 125 117
254 260 275 276 264 238 261 245 204 192 171 263 136 230 271 227 219 192 186 183 187 184 172 166 159 157 157 159 154 145 143 144 145 128 127 131 133 144 199 191 149 8 50 75
258 265 272 265 257 231 236 252 186 170 156 116 37 143 275 226 213 224 207 194 188 183 172 165 165 167 167 164 160 156 146 146 140 123 129 130 132 150 126 88 65 34 21 46
258 266 240 237 260 235 216 31 35 55 71 31 251 166 259 225 212 213 204 190 181 171 168 168 168 162 164 166 162 157 147 147 144 131 128 131 133 122 101 86 88 44 16 13
293 287 268 247 272 298 59 75 24 0 7 270 280 171 241 231 214 202 195 185 173 167 164 165 164 164 166 168 168 160 153 153 153 143 142 143 140 129 135 147 150 131 46 4
248 287 277 258 205 213 225 142 158 201 230 279 321 254 264 248 215 200 177 170 163 167 167 169 170 171 170 168 166 162 161 163 162 153 160 143 133 135 136 151 158 177 207 238
200 255 277 271 233 161 178 161 159 139 155 12 292 292 309 298 152 154 154 154 165 166 169 169 168 169 170 170 171 169 168 167 171 167 154 141 140 137 144 156 149 185 265 274
173 248 285 283 328 309 160 147 91 112 145 228 284 269 232 222 196 170 173 175 172 164 165 168 172 171 172 175 174 169 169 172 176 174 169 157 162 168 170 147 155 159 337 1
160 189 297 339 272 241 100 89 109 128 153 161 228 266 221 203 202 190 187 183 171 167 169 169 169 170 168 167 169 165 168 169 173 173 172 166 170 166 143 138 183 176 92 64
184 142 257 265 263 219 175 179 146 154 221 171 180 262 258 198 197 183 181 175 165 158 161 158 157 153 150 152 157 161 165 169 177 167 161 159 151 128 100 35 262 131 85 41
137 118 341 329 335 352 17 249 146 136 131 155 175 264 304 169 179 175 168 165 156 150 147 146 148 148 148 147 147 149 150 156 153 146 147 142 137 132 141 200 60 79 89 54
113 117 169 202 227 250 281 288 182 123 154 193 212 234 262 188 175 175 164 160 154 153 150 146 149 150 144 141 137 134 138 145 140 130 128 128 134 138 145 119 68 58 75 63
87 118 209 225 234 259 256 263 269 204 190 185 214 203 213 196 180 172 162 155 148 149 148 149 144 140 134 128 126 131 129 121 123 120 118 123 135 124 109 91 60 38 39 34
61 91 32 340 333 326 315 286 262 255 205 192 173 223 226 187 156 153 153 154 156 156 154 150 143 141 142 137 134 133 129 126 120 123 128 131 117 101 93 76 53 44 31 18
61 94 61 296 311 357 320 293 231 203 210 175 200 223 188 165 166 167 163 162 160 160 159 155 154 153 152 150 146 145 137 126 120 122 123 121 113 97 85 72 57 45 28 24
147 117 135 187 18 251 256 293 96 115 310 204 192 192 168 167 167 162 158 159 159 161 159 157 155 148 146 146 137 131 124 122 119 116 115 115 112 104 95 81 66 36 21 21
154 147 138 134 205 278 295 308 343 103 301 313 162 157 150 131 98 97 165 153 155 156 157 158 154 142 133 133 132 124 119 119 117 118 117 118 119 115 108 91 62 15 34 23
70 103 127 141 159 241 262 286 302 105 324 309 122 148 147 127 134 199 173 149 147 143 140 138 133 123 124 131 131 126 127 125 132 137 137 135 129 129 135 138 96 15 63 27
19 33 132 167 199 254 265 297 15 105 239 270 189 157 141 155 176 168 149 143 140 134 130 126 123 126 131 130 126 126 129 144 153 130 119 119 127 141 146 118 81 72 56 43
178 169 206 163 185 247 288 16 127 216 232 203 169 157 133 142 135 131 133 131 129 127 125 126 126 126 124 126 130 132 143 153 128 115 112 118 129 141 112 102 79 75 72 56
196 198 194 192 214 242 265 216 236 193 174 191 173 163 130 129 135 132 132 134 133 133 131 129 127 121 113 119 129 133 142 131 118 112 119 122 102 79 94 103 92 71 68 73
312 330 141 282 279 283 304 314 319 193 147 154 155 140 133 133 142 137 136 136 134 131 132 129 126 125 122 121 121 130 132 123 114 113 111 101 87 57 56 79 89 95 97 89
271 319 357 295 291 327 337 332 348 35 70 79 88 114 132 133 138 137 136 139 139 136 131 130 134 133 131 128 124 122 122 119 116 115 115 95 82 93 66 70 102 136 174 177
242 208 194 238 251 226 265 286 90 88 71 89 97 82 106 128 134 134 138 140 139 137 133 132 135 137 139 139 133 131 133 132 131 130 135 145 141 119 112 116 55 32 69 246
Height
1490 1496 1501 1497 1494 1496 1498 1501 1504 1497 1488 1493 1497 1498 1496 1495 1497 1499 1500 1501 1502 1503 1505 1507 1507 1507 1508 1508 1508 1508 1508 1508 1508 1508 1507 1507 1507 1507 1507 1507 1507 1507 1507 1506
1496 1498 1488 1486 1486 1490 1494 1500 1501 1496 1488 1492 1498 1498 1495 1494 1495 1496 1498 1499 1500 1502 1505 1506 1507 1507 1507 1508 1508 1509 1509 1508 1508 1508 1508 1508 1508 1507 1508 1507 1507 1507 1507 1506
1497 1488 1480 1483 1485 1490 1493 1497 1497 1497 1492 1491 1497 1505 1499 1495 1495 1495 1496 1497 1498 1499 1501 1504 1505 1507 1507 1508 1508 1509 1509 1509 1509 1509 1509 1509 1508 1508 1508 1507 1507 1507 1507 1506
1488 1481 1480 1483 1484 1485 1495 1483 1484 1490 1500 1508 1503 1522 1506 1498 1496 1495 1495 1496 1497 1498 1500 1502 1504 1506 1506 1507 1508 1508 1509 1509 1509 1509 1509 1509 1508 1507 1507 1507 1507 1507 1506 1506
1487 1479 1481 1483 1479 1478 1483 1477 1481 1486 1497 1508 1508 1519 1512 1499 1500 1495 1493 1494 1495 1496 1498 1500 1502 1504 1505 1506 1507 1508 1508 1509 1509 1509 1509 1508 1508 1508 1507 1507 1507 1506 1506 1506
1480 1474 1475 1474 1471 1472 1474 1480 1486 1494 1505 1521 1512 1517 1516 1502 1495 1491 1490 1492 1493 1495 1497 1499 1501 1503 1504 1506 1507 1507 1508 1508 1508 1508 1508 1508 1507 1507 1507 1506 1506 1506 1505 1505
1485 1477 1471 1469 1475 1474 1477 1497 1517 1522 1530 1527 1509 1513 1510 1490 1486 1484 1486 1488 1491 1494 1496 1497 1499 1501 1503 1504 1505 1506 1506 1507 1507 1507 1507 1507 1507 1506 1506 1506 1505 1505 1504 1504
1498 1495 1474 1468 1472 1478 1480 1493 1519 1531 1535 1526 1512 1514 1498 1483 1481 1481 1483 1486 1489 1492 1494 1495 1497 1499 1500 1502 1503 1504 1505 1505 1506 1506 1506 1506 1506 1506 1506 1505 1505 1504 1503 1503
1494 1492 1469 1465 1464 1469 1480 1489 1493 1513 1520 1527 1520 1507 1492 1481 1481 1482 1483 1485 1488 1489 1492 1493 1496 1498 1499 1500 1502 1503 1504 1504 1505 1505 1505 1506 1506 1506 1505 1505 1504 1504 1503 1502
1479 1489 1473 1465 1463 1465 1471 1481 1498 1512 1527 1533 1522 1512 1505 1490 1485 1483 1485 1485 1485 1487 1490 1493 1495 1496 1498 1499 1500 1502 1502 1503 1504 1504 1505 1505 1505 1505 1505 1504 1503 1503 1502 1501
1474 1487 1482 1474 1474 1476 1476 1483 1493 1507 1511 1526 1531 1516 1482 1482 1480 1481 1482 1483 1484 1486 1488 1491 1493 1495 1497 1498 1499 1500 1501 1502 1503 1503 1504 1504 1504 1504 1504 1503 1502 1502 1501 1500
1471 1485 1492 1481 1468 1464 1470 1477 1489 1506 1511 1513 1520 1509 1472 1472 1474 1476 1479 1482 1483 1485 1488 1490 1492 1494 1495 1497 1498 1499 1500 1500 1501 1502 1503 1503 1503 1503 1503 1502 1502 1501 1500 1499
1469 1485 1501 1496 1485 1473 1473 1473 1478 1489 1502 1511 1516 1503 1473 1472 1473 1475 1477 1479 1482 1484 1487 1489 1491 1493 1494 1495 1496 1497 1498 1499 1501 1502 1502 1502 1502 1502 1501 1501 1500 1500 1499 1498
1465 1482 1494 1500 1493 1482 1479 1473 1473 1485 1501 1505 1500 1491 1479 1475 1475 1476 1477 1479 1481 1484 1486 1488 1490 1492 1493 1495 1495 1496 1498 1499 1500 1500 1501 1501 1501 1500 1500 1500 1499 1499 1498 1497
1467 1482 1480 1478 1473 1472 1472 1471 1470 1477 1482 1491 1487 1484 1477 1473 1473 1474 1476 1479 1482 1484 1485 1487 1489 1491 1493 1494 1495 1497 1497 1498 1499 1499 1500 1500 1500 1500 1499 1499 1498 1498 1497 1496
1471 1480 1480 1480 1471 1470 1470 1467 1467 1469 1472 1475 1476 1478 1469 1468 1471 1473 1475 1477 1480 1482 1485 1487 1488 1490 1492 1494 1495 1496 1497 1498 1499 1499 1499 1500 1499 1499 1499 1498 1498 1497 1496 1495
1475 1481 1488 1491 1479 1475 1481 1470 1467 1469 1467 1470 1476 1472 1467 1469 1470 1471 1473 1476 1478 1481 1484 1485 1486 1488 1490 1492 1494 1495 1496 1497 1498 1498 1499 1499 1498 1498 1498 1498 1497 1496 1495 1494
1474 1482 1491 1493 1488 1495 1481 1463 1462 1465 1465 1463 1463 1462 1463 1464 1466 1468 1470 1473 1476 1479 1481 1484 1485 1487 1489 1491 1493 1495 1496 1496 1497 1498 1498 1498 1498 1498 1497 1497 1496 1495 1494 1493
1466 1477 1488 1495 1496 1489 1474 1463 1463 1467 1469 1463 1462 1461 1463 1464 1468 1471 1471 1472 1474 1477 1479 1482 1484 1486 1488 1489 1492 1494 1495 1495 1496 1497 1497 1497 1497 1497 1496 1496 1495 1494 1493 1492
1466 1472 1484 1491 1495 1496 1478 1461 1458 1463 1473 1463 1462 1461 1461 1463 1473 1473 1472 1473 1475 1477 1479 1482 1484 1485 1487 1489 1491 1492 1493 1494 1495 1495 1496 1496 1496 1496 1495 1495 1494 1494 1492 1491
1478 1481 1485 1490 1492 1484 1466 1459 1458 1476 1476 1463 1461 1460 1461 1462 1464 1467 1470 1473 1475 1477 1479 1482 1483 1485 1486 1488 1490 1491 1492 1494 1495 1495 1495 1495 1495 1495 1495 1494 1493 1493 1492 1490
1481 1485 1487 1488 1492 1486 1462 1461 1466 1468 1461 1461 1460 1460 1460 1462 1463 1466 1469 1472 1474 1477 1479 1482 1483 1485 1486 1487 1489 1490 1491 1492 1493 1494 1495 1495 1495 1494 1494 1493 1492 1492 1491 1490
1477 1477 1478 1478 1477 1465 1461 1461 1461 1460 1459 1459 1459 1460 1460 1462 1464 1467 1470 1472 1475 1477 1479 1481 1483 1484 1486 1487 1488 1489 1491 1492 1492 1493 1494 1494 1494 1493 1493 1492 1491 1491 1490 1489
1472 1468 1471 1471 1465 1461 1460 1459 1459 1459 1459 1459 1459 1460 1460 1462 1465 1467 1470 1473 1475 1477 1478 1480 1482 1484 1485 1486 1488 1489 1490 1490 1491 1492 1492 1493 1493 1492 1492 1491 1490 1490 1489 1488
1473 1470 1471 1470 1465 1461 1459 1459 1458 1458 1458 1459 1460 1461 1461 1463 1465 1466 1469 1471 1474 1476 1478 1480 1482 1483 1484 1485 1487 1489 1489 1490 1490 1491 1491 1492 1491 1491 1491 1490 1490 1489 1489 1488
1469 1470 1471 1470 1464 1463 1461 1459 1458 1458 1458 1458 1459 1461 1462 1463 1464 1466 1468 1470 1473 1476 1478 1480 1482 1483 1485 1486 1487 1488 1489 1489 1489 1490 1490 1490 1490 1490 1489 1489 1489 1488 1488 1487